Other Public Products
Issued by NWS Charleston, SC

Current Version | Previous Version | Graphics & Text | Print | Product List | Glossary On
Versions: 1 2 3 4 5 6 7 8 9 10 11 12 13 14 15 16 17 18 19 20 21 22 23 24 25 26 27 28 29 30 31 32 33 34 35 36 37 38 39 40 41 42 43 44 45 46 47 48 49 50
000
FPUS82 KCHS 191127
OPUCHS

TEST...KCHS/KSAV Gateway Observations...TEST
National Weather Service Charleston SC
700 AM EDT THU OCT 19 2017

NOTE: "fair" indicates few or no clouds below 12,000 feet with no
significant weather and/or obstructions to visibility.

SCZ050-WAZ558-NCZ071-TXZ119-213-PAZ071-DCZ001-FLZ074-172-MI076-
NYZ176-178-MAZ016-IL014-TNZ027-NJZ106-GAZ044-MD014-191200-

...Gateway Observations for Charleston International...

CITY           SKY/WX    TMP DP  RH WIND       PRES   REMARKS
Chas Airport   CLEAR     56  53  90 N6        30.22S
Seattle        RAIN      52  50  93 S14       29.62F FOG
Charlotte      CLEAR     42  42 100 N3        30.31R
Dallas DFW     MOCLDY    62  54  74 S7        30.11R
Dallas Love    MOCLDY    62  52  69 S7        30.13R
Philladelphia  PTCLDY    51  48  89 SW6       30.28S
Wash National  PTCLDY    50  47  89 SW3       30.28S
Baltimore      PTCLDY    42  42 100 CALM      30.27S
Miami          PTCLDY    76  74  93 N5        29.99R
Detroit        PTCLDY    53  45  74 SW13      30.07S
Newark         PTCLDY    48  44  86 SW6       30.25F
Laguardia      PTCLDY    59  46  62 SW7       30.24F
J F K          PTCLDY    52  48  86 SW6       30.27S
Boston Logan   PTCLDY    53  51  93 SW8       30.22F
Ft. Lauderdale PTCLDY    74  74 100 N5        29.98R
Chicago O`Hare PTCLDY    53  46  77 W6        30.08R
Chicago Midway CLOUDY    54  48  80 W8        30.09R
Houston Bush   CLOUDY    65  63  93 N5        30.12R
Houston Hobby  MOCLDY    68  62  81 NE3       30.10R
Nashville      PTCLDY    47  43  86 CALM      30.27R
Atlanta        PTCLDY    51  42  71 NE7       30.28R

$$

GAZ044-118-TXZ119-213-NCZ071-DCZ001-MDZ014-506-PAZ021-071-NJZ106-
NYZ176-178-MAZ106-OHZ011-021-055-MIZ076-KYZ091-ILZ014-INZ047-
MNZ060-ONZ431-191200-

...Gateway Observations for Savannah International...

CITY           SKY/WX    TMP DP  RH WIND       PRES   REMARKS
Savannah Arpt  CLEAR     56  54  93 N5        30.22R
Atlanta        PTCLDY    51  42  71 NE7       30.28R
Charlotte      CLEAR     42  42 100 N3        30.31R
Dallas DFW     MOCLDY    62  54  74 S7        30.11R
Houston Bush   CLOUDY    65  63  93 N5        30.12R
Wash National  PTCLDY    50  47  89 SW3       30.28S
Wash Dulles    PTCLDY    38  38 100 SE3       30.27S
Baltimore      PTCLDY    42  42 100 CALM      30.27S
Philadelphia   PTCLDY    51  48  89 SW6       30.28S
Newark         PTCLDY    48  44  86 SW6       30.25F
Laguardia      PTCLDY    59  46  62 SW7       30.24F
J F K          PTCLDY    52  48  86 SW6       30.27S
Boston         PTCLDY    53  51  93 SW8       30.22F
Pittsburg      CLEAR     42  39  89 CALM      30.22R
Akron          CLEAR     49  41  74 SW10      30.17F
Cleveland      PTCLDY    55  43  63 S13       30.15F
Cincinnati     CLEAR     47  45  93 S8        30.22R
Columbus       CLEAR     45  43  91 S8        30.20F
Detroit        PTCLDY    53  45  74 SW13      30.07S
Chicago O`Hare PTCLDY    53  46  77 W6        30.08R
Minneapolis    CLOUDY    46  33  60 CALM      30.05R
Indianapolis   PTCLDY    49  44  83 SW7       30.18R
Toronto Canada PTCLDY    55  48  76 S13       30.00F

$$




USA.gov is the U.S. government's official web portal to all federal, state and local government web resources and services.